Time,TemperatureF,DewpointF,PressureIn,WindDirection,WindDirectionDegrees,WindSpeedMPH,WindSpeedGustMPH,Humidity,HourlyPrecipIn,Conditions,Clouds,dailyrainin,SoftwareType,DateUTC
2017-02-24 00:02:00,38.2,38.0,29.94,WNW,293,0.0,-999.0,98,0.00,,,0.00,,2017-02-24 05:02:00,
2017-02-24 00:08:00,38.0,37.0,29.94,ESE,113,2.0,-999.0,98,0.00,,,0.00,,2017-02-24 05:08:00,
2017-02-24 00:13:00,37.7,37.0,29.94,SE,135,0.0,-999.0,98,0.00,,,0.00,,2017-02-24 05:13:00,
2017-02-24 00:18:00,37.5,37.0,29.95,East,90,1.0,-999.0,98,0.00,,,0.00,,2017-02-24 05:18:00,
2017-02-24 00:24:00,37.2,36.0,29.95,NNW,338,0.0,-999.0,98,0.00,,,0.00,,2017-02-24 05:24:00,
2017-02-24 00:29:00,37.4,37.0,29.94,SW,225,0.0,-999.0,98,0.00,,,0.00,,2017-02-24 05:29:00,
2017-02-24 00:35:00,37.4,37.0,29.95,NNW,338,0.0,-999.0,98,0.00,,,0.00,,2017-02-24 05:35:00,
2017-02-24 00:40:00,37.2,36.0,29.95,West,270,0.0,-999.0,98,0.00,,,0.00,,2017-02-24 05:40:00,
2017-02-24 00:45:00,37.0,36.0,29.95,SSE,158,0.0,-999.0,98,0.00,,,0.00,,2017-02-24 05:45:00,
2017-02-24 00:51:00,37.0,36.0,29.95,SSE,158,0.0,-999.0,98,0.00,,,0.00,,2017-02-24 05:51:00,
2017-02-24 00:57:00,36.9,36.0,29.95,WSW,248,0.0,-999.0,98,0.00,,,0.00,,2017-02-24 05:57:00,
2017-02-24 01:02:00,36.7,36.0,29.95,NE,45,0.0,-999.0,98,0.00,,,0.00,,2017-02-24 06:02:00,
2017-02-24 01:08:00,36.7,36.0,29.95,SW,225,0.0,-999.0,98,0.00,,,0.00,,2017-02-24 06:08:00,
2017-02-24 01:14:00,36.7,36.0,29.95,ESE,113,0.0,-999.0,98,0.00,,,0.00,,2017-02-24 06:14:00,
2017-02-24 01:19:00,36.5,36.0,29.96,ESE,113,0.0,-999.0,98,0.00,,,0.00,,2017-02-24 06:19:00,
2017-02-24 01:24:00,36.5,36.0,29.96,SSW,203,0.0,-999.0,98,0.00,,,0.00,,2017-02-24 06:24:00,
2017-02-24 01:26:00,36.2,36.0,29.96,NNE,23,0.0,-999.0,98,0.00,,,0.00,,2017-02-24 06:26:00,
2017-02-24 01:31:00,36.2,36.0,29.96,NE,45,0.0,-999.0,98,0.00,,,0.00,,2017-02-24 06:31:00,
2017-02-24 01:36:00,36.2,36.0,29.97,South,180,0.0,-999.0,98,0.00,,,0.00,,2017-02-24 06:36:00,
2017-02-24 01:42:00,36.2,36.0,29.96,ESE,113,0.0,-999.0,98,0.00,,,0.00,,2017-02-24 06:42:00,
2017-02-24 01:47:00,36.2,36.0,29.96,WNW,293,0.0,-999.0,98,0.00,,,0.00,,2017-02-24 06:47:00,
2017-02-24 01:53:00,36.2,36.0,29.96,NE,45,1.0,-999.0,98,0.00,,,0.00,,2017-02-24 06:53:00,
2017-02-24 01:58:00,36.2,36.0,29.96,ESE,113,1.0,-999.0,98,0.00,,,0.00,,2017-02-24 06:58:00,
2017-02-24 02:03:00,36.2,36.0,29.96,ENE,68,0.0,-999.0,98,0.00,,,0.00,,2017-02-24 07:03:00,
2017-02-24 02:09:00,36.1,35.0,29.97,ENE,68,0.0,-999.0,98,0.00,,,0.00,,2017-02-24 07:09:00,
2017-02-24 02:14:00,35.9,35.0,29.97,ESE,113,0.0,-999.0,98,0.00,,,0.00,,2017-02-24 07:14:00,
2017-02-24 02:20:00,35.7,35.0,29.96,NNE,23,0.0,-999.0,98,0.00,,,0.00,,2017-02-24 07:20:00,
2017-02-24 02:26:00,35.7,35.0,29.96,NNE,23,1.0,-999.0,98,0.00,,,0.00,,2017-02-24 07:26:00,
2017-02-24 02:31:00,35.5,35.0,29.97,ENE,68,0.0,-999.0,98,0.00,,,0.00,,2017-02-24 07:31:00,
2017-02-24 02:35:00,35.1,34.0,29.97,SSW,203,0.0,-999.0,98,0.00,,,0.00,,2017-02-24 07:35:00,
2017-02-24 02:41:00,34.9,34.0,29.97,ESE,113,0.0,-999.0,98,0.00,,,0.00,,2017-02-24 07:41:00,
2017-02-24 02:46:00,34.9,34.0,29.97,NNE,23,0.0,-999.0,98,0.00,,,0.00,,2017-02-24 07:46:00,
2017-02-24 02:51:00,34.9,34.0,29.97,WNW,293,1.0,-999.0,98,0.00,,,0.00,,2017-02-24 07:51:00,
2017-02-24 02:57:00,34.9,34.0,29.97,SSE,158,0.0,-999.0,98,0.00,,,0.00,,2017-02-24 07:57:00,
2017-02-24 03:02:00,34.7,34.0,29.98,NNE,23,0.0,-999.0,98,0.00,,,0.00,,2017-02-24 08:02:00,
2017-02-24 03:08:00,34.7,34.0,29.98,NW,315,0.0,-999.0,98,0.00,,,0.00,,2017-02-24 08:08:00,
2017-02-24 03:13:00,34.7,34.0,29.98,SSE,158,0.0,-999.0,98,0.00,,,0.00,,2017-02-24 08:13:00,
2017-02-24 03:18:00,34.5,34.0,29.98,ESE,113,0.0,-999.0,98,0.00,,,0.00,,2017-02-24 08:18:00,
2017-02-24 03:24:00,34.5,34.0,29.98,North,0,0.0,-999.0,98,0.00,,,0.00,,2017-02-24 08:24:00,
2017-02-24 03:29:00,34.2,34.0,29.98,WSW,248,0.0,-999.0,98,0.00,,,0.00,,2017-02-24 08:29:00,
2017-02-24 03:35:00,34.2,33.0,29.99,North,0,0.0,-999.0,98,0.00,,,0.00,,2017-02-24 08:35:00,
2017-02-24 03:40:00,34.2,33.0,29.98,NNW,338,0.0,-999.0,98,0.00,,,0.00,,2017-02-24 08:40:00,
2017-02-24 03:45:00,34.2,33.0,29.99,ESE,113,0.0,-999.0,98,0.00,,,0.00,,2017-02-24 08:45:00,
2017-02-24 03:51:00,34.5,34.0,29.98,NNE,23,0.0,-999.0,98,0.00,,,0.00,,2017-02-24 08:51:00,
2017-02-24 03:56:00,34.5,34.0,29.98,SSE,158,0.0,-999.0,98,0.00,,,0.00,,2017-02-24 08:56:00,
2017-02-24 04:02:00,34.7,34.0,29.98,NW,315,0.0,-999.0,98,0.00,,,0.00,,2017-02-24 09:02:00,
2017-02-24 04:07:00,34.7,34.0,29.98,NNE,23,0.0,-999.0,98,0.00,,,0.00,,2017-02-24 09:07:00,
2017-02-24 04:12:00,34.7,34.0,29.99,NNW,338,0.0,-999.0,98,0.00,,,0.00,,2017-02-24 09:12:00,
2017-02-24 04:18:00,34.7,34.0,29.98,ESE,113,0.0,-999.0,98,0.00,,,0.00,,2017-02-24 09:18:00,
2017-02-24 04:23:00,34.7,34.0,29.99,ESE,113,0.0,-999.0,98,0.00,,,0.00,,2017-02-24 09:23:00,
2017-02-24 04:29:00,34.5,34.0,29.99,NE,45,0.0,-999.0,98,0.00,,,0.00,,2017-02-24 09:29:00,
2017-02-24 04:35:00,34.2,34.0,29.99,South,180,0.0,-999.0,98,0.00,,,0.00,,2017-02-24 09:35:00,
2017-02-24 04:40:00,34.2,34.0,29.99,ESE,113,0.0,-999.0,98,0.00,,,0.00,,2017-02-24 09:40:00,
2017-02-24 04:45:00,34.2,34.0,29.99,NE,45,0.0,-999.0,98,0.00,,,0.00,,2017-02-24 09:45:00,
2017-02-24 04:51:00,34.2,34.0,30.00,SW,225,0.0,-999.0,98,0.00,,,0.00,,2017-02-24 09:51:00,
2017-02-24 04:56:00,33.8,33.0,30.00,SW,225,0.0,-999.0,98,0.00,,,0.00,,2017-02-24 09:56:00,
2017-02-24 05:02:00,33.8,33.0,30.00,NNE,23,0.0,-999.0,98,0.00,,,0.00,,2017-02-24 10:02:00,
2017-02-24 05:07:00,33.8,33.0,29.99,ENE,68,0.0,-999.0,98,0.00,,,0.00,,2017-02-24 10:07:00,
2017-02-24 05:12:00,33.8,33.0,29.99,ESE,113,0.0,-999.0,98,0.00,,,0.00,,2017-02-24 10:12:00,
2017-02-24 05:18:00,33.8,33.0,29.99,ESE,113,0.0,-999.0,98,0.00,,,0.00,,2017-02-24 10:18:00,
2017-02-24 05:23:00,33.8,33.0,29.98,NNW,338,0.0,-999.0,98,0.00,,,0.00,,2017-02-24 10:23:00,
2017-02-24 05:29:00,34.0,33.0,30.00,NNW,338,0.0,-999.0,98,0.00,,,0.00,,2017-02-24 10:29:00,
2017-02-24 05:34:00,34.2,33.0,30.00,ESE,113,0.0,-999.0,98,0.00,,,0.00,,2017-02-24 10:34:00,
2017-02-24 05:39:00,34.2,33.0,30.00,NW,315,0.0,-999.0,98,0.00,,,0.00,,2017-02-24 10:39:00,
2017-02-24 05:45:00,34.2,33.0,30.00,NE,45,0.0,-999.0,98,0.00,,,0.00,,2017-02-24 10:45:00,
2017-02-24 05:50:00,34.2,33.0,30.00,NNE,23,0.0,-999.0,98,0.00,,,0.00,,2017-02-24 10:50:00,
2017-02-24 05:56:00,34.2,33.0,30.00,SSE,158,0.0,-999.0,98,0.00,,,0.00,,2017-02-24 10:56:00,
2017-02-24 06:01:00,34.0,33.0,30.00,SE,135,0.0,-999.0,98,0.00,,,0.00,,2017-02-24 11:01:00,
2017-02-24 06:07:00,34.0,33.0,30.00,SSE,158,0.0,-999.0,98,0.00,,,0.00,,2017-02-24 11:07:00,
2017-02-24 06:12:00,34.0,33.0,29.99,WNW,293,0.0,-999.0,98,0.00,,,0.00,,2017-02-24 11:12:00,
2017-02-24 06:18:00,33.8,33.0,29.99,ESE,113,0.0,-999.0,98,0.00,,,0.00,,2017-02-24 11:18:00,
2017-02-24 06:23:00,33.8,33.0,29.99,SE,135,0.0,-999.0,98,0.00,,,0.00,,2017-02-24 11:23:00,
2017-02-24 06:29:00,34.2,33.0,29.99,SSW,203,0.0,-999.0,98,0.00,,,0.00,,2017-02-24 11:29:00,
2017-02-24 06:34:00,34.0,33.0,29.98,NNE,23,1.0,-999.0,98,0.00,,,0.00,,2017-02-24 11:34:00,
2017-02-24 06:39:00,34.0,33.0,29.98,NNE,23,1.0,-999.0,98,0.00,,,0.00,,2017-02-24 11:39:00,
2017-02-24 06:45:00,34.0,33.0,29.98,ENE,68,1.0,-999.0,98,0.00,,,0.00,,2017-02-24 11:45:00,
2017-02-24 06:50:00,34.0,33.0,29.98,NNE,23,1.0,-999.0,98,0.00,,,0.00,,2017-02-24 11:50:00,
2017-02-24 06:56:00,34.2,33.0,29.98,WNW,293,0.0,-999.0,98,0.00,,,0.00,,2017-02-24 11:56:00,
2017-02-24 06:57:00,34.2,33.0,29.99,South,180,0.0,-999.0,98,0.00,,,0.00,,2017-02-24 11:57:00,
2017-02-24 07:03:00,34.0,33.0,29.99,East,90,0.0,-999.0,98,0.00,,,0.00,,2017-02-24 12:03:00,
2017-02-24 07:08:00,34.2,33.0,29.98,South,180,0.0,-999.0,98,0.00,,,0.00,,2017-02-24 12:08:00,
2017-02-24 07:14:00,34.2,34.0,29.99,West,270,0.0,-999.0,98,0.00,,,0.00,,2017-02-24 12:14:00,
2017-02-24 07:19:00,34.5,34.0,30.00,NNW,338,0.0,-999.0,98,0.00,,,0.00,,2017-02-24 12:19:00,
2017-02-24 07:24:00,35.0,34.0,30.00,NNE,23,0.0,-999.0,98,0.00,,,0.00,,2017-02-24 12:24:00,
2017-02-24 07:30:00,35.0,34.0,30.00,ESE,113,0.0,-999.0,98,0.00,,,0.00,,2017-02-24 12:30:00,
2017-02-24 07:35:00,35.0,34.0,30.00,ESE,113,0.0,-999.0,98,0.00,,,0.00,,2017-02-24 12:35:00,
2017-02-24 07:41:00,35.9,35.0,30.00,West,270,0.0,-999.0,98,0.00,,,0.00,,2017-02-24 12:41:00,
2017-02-24 07:45:00,36.5,35.0,30.00,East,90,0.0,-999.0,96,0.00,,,0.00,,2017-02-24 12:45:00,
2017-02-24 07:50:00,36.2,35.0,30.01,NE,45,0.0,-999.0,98,0.00,,,0.00,,2017-02-24 12:50:00,
2017-02-24 07:56:00,37.0,36.0,30.01,North,0,0.0,-999.0,98,0.00,,,0.00,,2017-02-24 12:56:00,
2017-02-24 08:01:00,36.7,36.0,30.01,SSE,158,0.0,-999.0,98,0.00,,,0.00,,2017-02-24 13:01:00,
2017-02-24 08:06:00,37.2,36.0,30.01,West,270,0.0,-999.0,96,0.00,,,0.00,,2017-02-24 13:06:00,
2017-02-24 08:12:00,38.2,36.0,30.01,NNE,23,0.0,-999.0,95,0.00,,,0.00,,2017-02-24 13:12:00,
2017-02-24 08:17:00,38.7,37.0,30.00,West,270,0.0,-999.0,96,0.00,,,0.00,,2017-02-24 13:17:00,
2017-02-24 08:23:00,40.0,38.0,30.00,NNW,338,0.0,-999.0,93,0.00,,,0.00,,2017-02-24 13:23:00,
2017-02-24 08:28:00,40.5,38.0,30.00,West,270,0.0,-999.0,91,0.00,,,0.00,,2017-02-24 13:28:00,
2017-02-24 08:33:00,42.3,39.0,30.00,NE,45,0.0,-999.0,90,0.00,,,0.00,,2017-02-24 13:33:00,
2017-02-24 08:39:00,43.0,39.0,30.00,SSE,158,0.0,-999.0,86,0.00,,,0.00,,2017-02-24 13:39:00,
2017-02-24 08:45:00,43.2,39.0,30.00,ESE,113,0.0,-999.0,86,0.00,,,0.00,,2017-02-24 13:45:00,
2017-02-24 08:50:00,44.0,40.0,30.00,North,0,0.0,-999.0,86,0.00,,,0.00,,2017-02-24 13:50:00,
2017-02-24 08:56:00,43.2,39.0,30.00,ESE,113,0.0,-999.0,86,0.00,,,0.00,,2017-02-24 13:56:00,
2017-02-24 09:01:00,44.0,40.0,30.00,WNW,293,0.0,-999.0,86,0.00,,,0.00,,2017-02-24 14:01:00,
2017-02-24 09:07:00,44.8,40.0,30.01,WNW,293,0.0,-999.0,83,0.00,,,0.00,,2017-02-24 14:07:00,
2017-02-24 09:12:00,45.5,40.0,30.01,East,90,0.0,-999.0,83,0.00,,,0.00,,2017-02-24 14:12:00,
2017-02-24 09:18:00,44.4,39.0,30.00,NE,45,1.0,-999.0,81,0.00,,,0.00,,2017-02-24 14:18:00,
2017-02-24 09:23:00,47.1,40.0,30.00,NNE,23,0.0,-999.0,76,0.00,,,0.00,,2017-02-24 14:23:00,
2017-02-24 09:30:00,47.5,40.0,30.00,North,0,2.0,-999.0,76,0.00,,,0.00,,2017-02-24 14:30:00,
2017-02-24 09:35:00,47.3,40.0,30.00,NE,45,1.0,-999.0,76,0.00,,,0.00,,2017-02-24 14:35:00,
2017-02-24 09:41:00,47.7,40.0,30.00,SE,135,0.0,-999.0,76,0.00,,,0.00,,2017-02-24 14:41:00,
2017-02-24 09:46:00,48.4,41.0,30.00,West,270,2.0,-999.0,76,0.00,,,0.00,,2017-02-24 14:46:00,
2017-02-24 09:51:00,48.6,41.0,30.00,ENE,68,0.0,-999.0,75,0.00,,,0.00,,2017-02-24 14:51:00,
2017-02-24 09:57:00,50.9,42.0,30.00,NNE,23,0.0,-999.0,71,0.00,,,0.00,,2017-02-24 14:57:00,
2017-02-24 10:02:00,51.5,42.0,30.00,NNE,23,0.0,-999.0,71,0.00,,,0.00,,2017-02-24 15:02:00,
2017-02-24 10:08:00,51.5,43.0,30.00,WNW,293,1.0,-999.0,75,0.00,,,0.00,,2017-02-24 15:08:00,
2017-02-24 10:14:00,51.4,45.0,30.00,West,270,0.0,-999.0,80,0.00,,,0.00,,2017-02-24 15:14:00,
2017-02-24 10:19:00,51.4,45.0,29.99,SSE,158,0.0,-999.0,79,0.00,,,0.00,,2017-02-24 15:19:00,
2017-02-24 10:24:00,51.5,45.0,30.00,ESE,113,0.0,-999.0,80,0.00,,,0.00,,2017-02-24 15:24:00,
2017-02-24 10:30:00,51.3,45.0,29.99,WNW,293,0.0,-999.0,80,0.00,,,0.00,,2017-02-24 15:30:00,
2017-02-24 10:36:00,51.4,46.0,29.99,SSE,158,1.0,-999.0,83,0.00,,,0.00,,2017-02-24 15:36:00,
2017-02-24 10:41:00,51.4,47.0,29.99,WNW,293,1.0,-999.0,85,0.00,,,0.00,,2017-02-24 15:41:00,
2017-02-24 10:47:00,50.3,47.0,29.99,NNW,338,0.0,-999.0,91,0.00,,,0.00,,2017-02-24 15:47:00,
2017-02-24 10:52:00,49.8,47.0,29.98,North,0,0.0,-999.0,91,0.00,,,0.00,,2017-02-24 15:52:00,
2017-02-24 10:57:00,49.2,47.0,29.98,WNW,293,1.0,-999.0,93,0.00,,,0.00,,2017-02-24 15:57:00,
2017-02-24 11:03:00,49.0,48.0,29.98,NNW,338,2.0,-999.0,96,0.00,,,0.00,,2017-02-24 16:03:00,
2017-02-24 11:08:00,49.8,48.0,29.97,WNW,293,2.0,-999.0,96,0.00,,,0.00,,2017-02-24 16:08:00,
2017-02-24 11:14:00,49.8,48.0,29.98,NW,315,2.0,-999.0,96,0.01,,,0.01,,2017-02-24 16:14:00,
2017-02-24 11:19:00,49.4,48.0,29.97,West,270,1.0,-999.0,98,0.01,,,0.01,,2017-02-24 16:19:00,
2017-02-24 11:24:00,50.0,49.0,29.97,NNE,23,0.0,-999.0,98,0.01,,,0.01,,2017-02-24 16:24:00,
2017-02-24 11:30:00,51.8,50.0,29.97,NE,45,1.0,-999.0,96,0.01,,,0.01,,2017-02-24 16:30:00,
2017-02-24 11:35:00,51.3,49.0,29.97,NW,315,1.0,-999.0,93,0.01,,,0.01,,2017-02-24 16:35:00,
2017-02-24 11:41:00,51.3,49.0,29.97,NNW,338,1.0,-999.0,95,0.01,,,0.01,,2017-02-24 16:41:00,
2017-02-24 11:46:00,50.7,49.0,29.97,NE,45,1.0,-999.0,95,0.01,,,0.01,,2017-02-24 16:46:00,
2017-02-24 11:51:00,51.0,49.0,29.97,WNW,293,0.0,-999.0,93,0.01,,,0.01,,2017-02-24 16:51:00,
2017-02-24 11:57:00,51.0,49.0,29.97,East,90,0.0,-999.0,93,0.01,,,0.01,,2017-02-24 16:57:00,
2017-02-24 12:02:00,51.0,49.0,29.97,NNE,23,1.0,-999.0,93,0.00,,,0.01,,2017-02-24 17:02:00,
2017-02-24 12:08:00,50.9,49.0,29.97,NW,315,2.0,-999.0,93,0.00,,,0.01,,2017-02-24 17:08:00,
2017-02-24 12:14:00,51.0,49.0,29.96,East,90,0.0,-999.0,96,0.00,,,0.01,,2017-02-24 17:14:00,
2017-02-24 12:20:00,50.3,49.0,29.96,NNW,338,1.0,-999.0,96,0.00,,,0.01,,2017-02-24 17:20:00,
2017-02-24 12:25:00,50.9,49.0,29.96,North,0,2.0,-999.0,96,0.00,,,0.01,,2017-02-24 17:25:00,
2017-02-24 12:30:00,51.3,50.0,29.95,West,270,2.0,-999.0,96,0.00,,,0.01,,2017-02-24 17:30:00,
2017-02-24 12:36:00,51.0,49.0,29.95,West,270,1.0,-999.0,96,0.00,,,0.01,,2017-02-24 17:36:00,
2017-02-24 12:41:00,50.9,50.0,29.95,NNE,23,2.0,-999.0,96,0.00,,,0.01,,2017-02-24 17:41:00,
2017-02-24 12:47:00,50.5,49.0,29.95,NW,315,1.0,-999.0,98,0.00,,,0.01,,2017-02-24 17:47:00,
2017-02-24 12:53:00,50.3,49.0,29.95,North,0,2.0,-999.0,98,0.00,,,0.01,,2017-02-24 17:53:00,
2017-02-24 12:59:00,50.9,50.0,29.95,WNW,293,2.0,-999.0,98,0.00,,,0.01,,2017-02-24 17:59:00,
2017-02-24 13:04:00,51.5,50.0,29.95,WNW,293,1.0,-999.0,96,0.00,,,0.01,,2017-02-24 18:04:00,
2017-02-24 13:09:00,52.3,50.0,29.94,NW,315,0.0,-999.0,93,0.00,,,0.01,,2017-02-24 18:09:00,
2017-02-24 13:15:00,52.5,50.0,29.94,West,270,2.0,-999.0,93,0.00,,,0.01,,2017-02-24 18:15:00,
2017-02-24 13:20:00,52.2,50.0,29.94,West,270,2.0,-999.0,93,0.00,,,0.01,,2017-02-24 18:20:00,
2017-02-24 13:26:00,52.2,50.0,29.94,WNW,293,0.0,-999.0,93,0.00,,,0.01,,2017-02-24 18:26:00,
2017-02-24 13:31:00,52.2,50.0,29.94,North,0,0.0,-999.0,93,0.00,,,0.01,,2017-02-24 18:31:00,
2017-02-24 13:37:00,51.4,50.0,29.94,NNE,23,0.0,-999.0,96,0.00,,,0.01,,2017-02-24 18:37:00,
2017-02-24 13:42:00,51.9,50.0,29.94,NNE,23,0.0,-999.0,95,0.00,,,0.01,,2017-02-24 18:42:00,
2017-02-24 13:48:00,52.6,50.0,29.93,West,270,0.0,-999.0,93,0.00,,,0.01,,2017-02-24 18:48:00,
2017-02-24 13:53:00,53.8,50.0,29.93,ESE,113,2.0,-999.0,88,0.00,,,0.01,,2017-02-24 18:53:00,
2017-02-24 13:59:00,54.0,50.0,29.93,ESE,113,1.0,-999.0,86,0.00,,,0.01,,2017-02-24 18:59:00,
2017-02-24 14:05:00,56.3,51.0,29.92,WNW,293,3.0,-999.0,83,0.00,,,0.01,,2017-02-24 19:05:00,
2017-02-24 14:10:00,57.5,52.0,29.92,NNE,23,2.0,-999.0,81,0.00,,,0.01,,2017-02-24 19:10:00,
2017-02-24 14:15:00,57.8,52.0,29.92,NW,315,2.0,-999.0,81,0.00,,,0.01,,2017-02-24 19:15:00,
2017-02-24 14:21:00,58.8,52.0,29.91,East,90,1.0,-999.0,80,0.00,,,0.01,,2017-02-24 19:21:00,
2017-02-24 14:27:00,59.3,52.0,29.91,SE,135,0.0,-999.0,78,0.00,,,0.01,,2017-02-24 19:27:00,
2017-02-24 14:32:00,59.3,51.0,29.91,WNW,293,1.0,-999.0,75,0.00,,,0.01,,2017-02-24 19:32:00,
2017-02-24 14:38:00,58.4,51.0,29.91,NE,45,1.0,-999.0,76,0.00,,,0.01,,2017-02-24 19:38:00,
2017-02-24 14:43:00,59.0,51.0,29.91,NW,315,1.0,-999.0,76,0.00,,,0.01,,2017-02-24 19:43:00,
2017-02-24 14:48:00,61.1,52.0,29.92,West,270,2.0,-999.0,74,0.00,,,0.01,,2017-02-24 19:48:00,
2017-02-24 14:54:00,61.0,52.0,29.91,North,0,4.0,-999.0,73,0.00,,,0.01,,2017-02-24 19:54:00,
2017-02-24 14:59:00,61.1,52.0,29.91,NW,315,1.0,-999.0,73,0.00,,,0.01,,2017-02-24 19:59:00,
2017-02-24 15:05:00,60.5,51.0,29.91,South,180,2.0,-999.0,71,0.00,,,0.01,,2017-02-24 20:05:00,
2017-02-24 15:10:00,60.5,52.0,29.90,WNW,293,2.0,-999.0,74,0.00,,,0.01,,2017-02-24 20:10:00,
2017-02-24 15:15:00,59.4,51.0,29.90,NNE,23,1.0,-999.0,75,0.00,,,0.01,,2017-02-24 20:15:00,
2017-02-24 15:21:00,59.0,51.0,29.91,North,0,0.0,-999.0,75,0.00,,,0.01,,2017-02-24 20:21:00,
2017-02-24 15:26:00,58.8,51.0,29.91,NNW,338,0.0,-999.0,78,0.00,,,0.01,,2017-02-24 20:26:00,
2017-02-24 15:32:00,58.5,51.0,29.91,NNW,338,2.0,-999.0,76,0.00,,,0.01,,2017-02-24 20:32:00,
2017-02-24 15:37:00,58.2,51.0,29.91,ENE,68,1.0,-999.0,78,0.00,,,0.01,,2017-02-24 20:37:00,
2017-02-24 15:42:00,59.2,51.0,29.91,NNW,338,2.0,-999.0,75,0.00,,,0.01,,2017-02-24 20:42:00,
2017-02-24 15:48:00,59.2,51.0,29.91,ESE,113,2.0,-999.0,75,0.00,,,0.01,,2017-02-24 20:48:00,
2017-02-24 15:54:00,58.0,50.0,29.91,WNW,293,1.0,-999.0,75,0.00,,,0.01,,2017-02-24 20:54:00,
2017-02-24 15:59:00,58.4,50.0,29.90,South,180,0.0,-999.0,75,0.00,,,0.01,,2017-02-24 20:59:00,
2017-02-24 16:05:00,58.5,50.0,29.91,West,270,0.0,-999.0,74,0.00,,,0.01,,2017-02-24 21:05:00,
2017-02-24 16:10:00,58.5,50.0,29.90,WSW,248,0.0,-999.0,74,0.00,,,0.01,,2017-02-24 21:10:00,
2017-02-24 16:16:00,58.4,50.0,29.90,SW,225,2.0,-999.0,74,0.00,,,0.01,,2017-02-24 21:16:00,
2017-02-24 16:21:00,59.0,50.0,29.90,South,180,1.0,-999.0,73,0.00,,,0.01,,2017-02-24 21:21:00,
2017-02-24 16:27:00,59.0,50.0,29.91,WSW,248,4.0,-999.0,73,0.00,,,0.01,,2017-02-24 21:27:00,
2017-02-24 16:32:00,58.8,50.0,29.90,WNW,293,1.0,-999.0,73,0.00,,,0.01,,2017-02-24 21:32:00,
2017-02-24 16:38:00,58.2,50.0,29.90,WNW,293,1.0,-999.0,74,0.00,,,0.01,,2017-02-24 21:38:00,
2017-02-24 16:44:00,57.7,49.0,29.90,NNW,338,2.0,-999.0,75,0.00,,,0.01,,2017-02-24 21:44:00,
2017-02-24 16:50:00,57.2,49.0,29.90,NNW,338,2.0,-999.0,75,0.00,,,0.01,,2017-02-24 21:50:00,
2017-02-24 16:55:00,56.7,50.0,29.90,NW,315,1.0,-999.0,78,0.00,,,0.01,,2017-02-24 21:55:00,
2017-02-24 17:00:00,56.7,49.0,29.90,WNW,293,1.0,-999.0,78,0.00,,,0.01,,2017-02-24 22:00:00,
2017-02-24 17:06:00,56.3,49.0,29.90,WNW,293,2.0,-999.0,79,0.00,,,0.01,,2017-02-24 22:06:00,
2017-02-24 17:12:00,55.3,49.0,29.90,NW,315,1.0,-999.0,80,0.00,,,0.01,,2017-02-24 22:12:00,
2017-02-24 17:17:00,54.9,48.0,29.90,North,0,0.0,-999.0,80,0.00,,,0.01,,2017-02-24 22:17:00,
2017-02-24 17:23:00,54.0,48.0,29.90,North,0,0.0,-999.0,81,0.00,,,0.01,,2017-02-24 22:23:00,
2017-02-24 17:28:00,53.4,48.0,29.90,NNE,23,0.0,-999.0,81,0.00,,,0.01,,2017-02-24 22:28:00,
2017-02-24 17:33:00,52.6,47.0,29.90,NNE,23,0.0,-999.0,83,0.00,,,0.01,,2017-02-24 22:33:00,
2017-02-24 17:39:00,51.9,46.0,29.90,NNE,23,0.0,-999.0,83,0.00,,,0.01,,2017-02-24 22:39:00,
2017-02-24 17:44:00,51.0,46.0,29.90,NW,315,0.0,-999.0,83,0.00,,,0.01,,2017-02-24 22:44:00,
2017-02-24 17:50:00,50.3,46.0,29.91,NE,45,0.0,-999.0,85,0.00,,,0.01,,2017-02-24 22:50:00,
2017-02-24 17:55:00,49.8,46.0,29.90,NNE,23,0.0,-999.0,86,0.00,,,0.01,,2017-02-24 22:55:00,
2017-02-24 18:00:00,49.0,45.0,29.91,North,0,0.0,-999.0,88,0.00,,,0.01,,2017-02-24 23:00:00,
2017-02-24 18:06:00,48.9,46.0,29.91,NW,315,0.0,-999.0,91,0.00,,,0.01,,2017-02-24 23:06:00,
2017-02-24 18:11:00,48.4,46.0,29.91,ENE,68,0.0,-999.0,91,0.00,,,0.01,,2017-02-24 23:11:00,
2017-02-24 18:17:00,48.2,46.0,29.91,NE,45,0.0,-999.0,93,0.00,,,0.01,,2017-02-24 23:17:00,
2017-02-24 18:22:00,47.6,45.0,29.92,NNE,23,0.0,-999.0,91,0.00,,,0.01,,2017-02-24 23:22:00,
2017-02-24 18:28:00,46.9,44.0,29.91,NNE,23,0.0,-999.0,91,0.00,,,0.01,,2017-02-24 23:28:00,
2017-02-24 18:33:00,46.5,44.0,29.91,NE,45,0.0,-999.0,91,0.00,,,0.01,,2017-02-24 23:33:00,
2017-02-24 18:39:00,45.9,43.0,29.91,NNE,23,0.0,-999.0,93,0.00,,,0.01,,2017-02-24 23:39:00,
2017-02-24 18:45:00,45.5,43.0,29.91,NE,45,0.0,-999.0,93,0.00,,,0.01,,2017-02-24 23:45:00,
2017-02-24 18:50:00,45.2,43.0,29.91,North,0,0.0,-999.0,93,0.00,,,0.01,,2017-02-24 23:50:00,
2017-02-24 18:56:00,44.8,43.0,29.91,NNE,23,0.0,-999.0,93,0.00,,,0.01,,2017-02-24 23:56:00,
2017-02-24 19:02:00,44.6,43.0,29.91,East,90,0.0,-999.0,95,0.00,,,0.01,,2017-02-25 00:02:00,
2017-02-24 19:07:00,44.2,42.0,29.91,NNE,23,0.0,-999.0,95,0.00,,,0.01,,2017-02-25 00:07:00,
2017-02-24 19:12:00,43.9,42.0,29.91,South,180,0.0,-999.0,96,0.00,,,0.01,,2017-02-25 00:12:00,
2017-02-24 19:18:00,43.6,42.0,29.91,NNW,338,0.0,-999.0,96,0.00,,,0.01,,2017-02-25 00:18:00,
2017-02-24 19:24:00,43.2,42.0,29.91,West,270,0.0,-999.0,96,0.00,,,0.01,,2017-02-25 00:24:00,
2017-02-24 19:29:00,43.2,42.0,29.91,West,270,0.0,-999.0,98,0.00,,,0.01,,2017-02-25 00:29:00,
2017-02-24 19:35:00,43.6,43.0,29.91,WSW,248,0.0,-999.0,98,0.00,,,0.01,,2017-02-25 00:35:00,
2017-02-24 19:41:00,45.5,45.0,29.91,WNW,293,2.0,-999.0,98,0.00,,,0.01,,2017-02-25 00:41:00,
2017-02-24 19:46:00,46.1,45.0,29.91,WNW,293,0.0,-999.0,98,0.00,,,0.01,,2017-02-25 00:46:00,
2017-02-24 19:51:00,46.1,45.0,29.91,West,270,1.0,-999.0,98,0.00,,,0.01,,2017-02-25 00:51:00,
2017-02-24 19:57:00,45.0,44.0,29.91,North,0,0.0,-999.0,98,0.00,,,0.01,,2017-02-25 00:57:00,
2017-02-24 20:02:00,44.8,44.0,29.91,WSW,248,0.0,-999.0,98,0.00,,,0.01,,2017-02-25 01:02:00,
2017-02-24 20:08:00,44.4,44.0,29.91,North,0,2.0,-999.0,98,0.00,,,0.01,,2017-02-25 01:08:00,
2017-02-24 20:13:00,44.2,43.0,29.91,NNE,23,1.0,-999.0,98,0.00,,,0.01,,2017-02-25 01:13:00,
2017-02-24 20:18:00,44.8,44.0,29.91,SW,225,3.0,-999.0,98,0.00,,,0.01,,2017-02-25 01:18:00,
2017-02-24 20:24:00,45.5,45.0,29.91,SW,225,0.0,-999.0,98,0.00,,,0.01,,2017-02-25 01:24:00,
2017-02-24 20:29:00,45.9,45.0,29.91,SSW,203,0.0,-999.0,98,0.00,,,0.01,,2017-02-25 01:29:00,
2017-02-24 20:35:00,46.1,45.0,29.91,West,270,1.0,-999.0,98,0.00,,,0.01,,2017-02-25 01:35:00,
2017-02-24 20:41:00,45.9,45.0,29.91,West,270,2.0,-999.0,98,0.00,,,0.01,,2017-02-25 01:41:00,
2017-02-24 20:46:00,46.9,46.0,29.91,SW,225,2.0,-999.0,98,0.00,,,0.01,,2017-02-25 01:46:00,
2017-02-24 20:52:00,47.6,47.0,29.92,WNW,293,1.0,-999.0,98,0.00,,,0.01,,2017-02-25 01:52:00,
2017-02-24 20:57:00,47.7,47.0,29.91,ESE,113,1.0,-999.0,98,0.00,,,0.01,,2017-02-25 01:57:00,
2017-02-24 21:03:00,48.0,47.0,29.91,South,180,1.0,-999.0,98,0.00,,,0.01,,2017-02-25 02:03:00,
2017-02-24 21:08:00,47.6,47.0,29.91,North,0,0.0,-999.0,98,0.00,,,0.01,,2017-02-25 02:08:00,
2017-02-24 21:13:00,47.6,47.0,29.91,South,180,2.0,-999.0,98,0.00,,,0.01,,2017-02-25 02:13:00,
2017-02-24 21:19:00,47.5,47.0,29.91,East,90,0.0,-999.0,98,0.00,,,0.01,,2017-02-25 02:19:00,
2017-02-24 21:25:00,47.6,47.0,29.91,NNE,23,1.0,-999.0,98,0.00,,,0.01,,2017-02-25 02:25:00,
2017-02-24 21:31:00,47.6,47.0,29.91,North,0,0.0,-999.0,98,0.00,,,0.01,,2017-02-25 02:31:00,
2017-02-24 21:36:00,47.5,47.0,29.90,East,90,0.0,-999.0,98,0.00,,,0.01,,2017-02-25 02:36:00,
2017-02-24 21:42:00,47.6,47.0,29.90,WSW,248,1.0,-999.0,98,0.00,,,0.01,,2017-02-25 02:42:00,
2017-02-24 21:47:00,47.7,47.0,29.90,WNW,293,3.0,-999.0,98,0.00,,,0.01,,2017-02-25 02:47:00,
2017-02-24 21:52:00,48.4,48.0,29.91,NNW,338,1.0,-999.0,98,0.00,,,0.01,,2017-02-25 02:52:00,
2017-02-24 21:58:00,48.9,48.0,29.90,West,270,3.0,-999.0,98,0.00,,,0.01,,2017-02-25 02:58:00,
2017-02-24 22:03:00,48.5,48.0,29.90,East,90,0.0,-999.0,98,0.00,,,0.01,,2017-02-25 03:03:00,